CR7BYS Weather Reports


time (UTC)temp
C
wind
direction
speed
KPH
gust
KPH
rain 1hr
cm
rain 24hr
cm
rain mn
cm
humidity
%
barometer
mb
20260508094044 20 0 0.0 0.0 0.00 0.00 0.00 52 1003.1
20260508092910 21 0 0.0 0.0 0.00 0.00 0.00 48 1002.9
20260508091820 -17 0 0.0 0.0 0.00 0.00 0.00 100
20260508090320 -17 0 0.0 0.0 0.00 0.00 0.00 100
20260508084820 -17 0 0.0 0.0 0.00 0.00 0.00 100
20260508083320 -17 0 0.0 0.0 0.00 0.00 0.00 100
20260508082401 -17 0 0.0 0.0 0.00 0.00 0.00 100
20260508081821 -17 0 0.0 0.0 0.00 0.00 0.00 100
20260508080901 -17 0 0.0 0.0 0.00 0.00 0.00 100
20260508080320 -17 0 0.0 0.0 0.00 0.00 0.00 100
20260508075401 -17 0 0.0 0.0 0.00 0.00 0.00 100
20260508074820 -17 0 0.0 0.0 0.00 0.00 0.00 100
20260508073901 -17 0 0.0 0.0 0.00 0.00 0.00 100
20260508073320 -17 0 0.0 0.0 0.00 0.00 0.00 100
20260508072401 21 0 0.0 0.0 0.00 0.00 0.00 49 1002.7
20260508071820 21 0 0.0 0.0 0.00 0.00 0.00 49 1002.6
20260508070901 20 0 0.0 0.0 0.00 0.00 0.00 49 1002.5
20260508070320 20 0 0.0 0.0 0.00 0.00 0.00 50 1002.5
20260508065401 20 0 0.0 0.0 0.00 0.00 0.00 49 1002.4
20260508064820 20 0 0.0 0.0 0.00 0.00 0.00 50 1002.3
20260508063901 20 0 0.0 0.0 0.00 0.00 0.00 50 1002.4
20260508063627 20 0 0.0 0.0 0.00 0.00 0.00 49 1002.3
20260508063320 20 0 0.0 0.0 0.00 0.00 0.00 49 1002.3
20260508062127 20 0 0.0 0.0 0.00 0.00 0.00 50 1002.3
20260508061820 20 0 0.0 0.0 0.00 0.00 0.00 50 1002.3
20260508060627 20 0 0.0 0.0 0.00 0.00 0.00 51 1002.3
20260508060320 20 0 0.0 0.0 0.00 0.00 0.00 51 1002.3
20260508055127 20 0 0.0 0.0 0.00 0.00 0.00 51 1002.2
20260508054820 20 0 0.0 0.0 0.00 0.00 0.00 52 1002.2
20260508053627 20 0 0.0 0.0 0.00 0.00 0.00 54 1002.0
20260508053320 20 0 0.0 0.0 0.00 0.00 0.00 56 1002.0
20260508043716 20 0 0.0 0.0 0.00 0.00 0.00 44 994.0
20260508043708 20 0 0.0 0.0 0.00 0.00 0.00 44 993.9
20260508042216 23 0 0.0 0.0 0.00 0.00 0.00 39 993.6
20260508042208 23 0 0.0 0.0 0.00 0.00 0.00 39 993.7
20260508040617 20 0 0.0 0.0 0.00 0.00 0.00 46 993.6
20260508040253 20 0 0.0 0.0 0.00 0.00 0.00 45 993.4
20260508035051 20 0 0.0 0.0 0.00 0.00 0.00 44 993.8
20260508034915 20 0 0.0 0.0 0.00 0.00 0.00 44 993.8
20260508033415 20 0 0.0 0.0 0.00 0.00 0.00 43 993.8
20260508033254 21 0 0.0 0.0 0.00 0.00 0.00 42 993.8
20260508033212 21 0 0.0 0.0 0.00 0.00 0.00 42 993.7
20260508033146 21 0 0.0 0.0 0.00 0.00 0.00 41 993.8
20260507203038 -17 0 0.0 0.0 0.00 0.00 0.00 100
20260507201620 -17 0 0.0 0.0 0.00 0.00 0.00 100
20260507201538 -17 0 0.0 0.0 0.00 0.00 0.00 100
20260507200120 -17 0 0.0 0.0 0.00 0.00 0.00 100
20260507200038 -17 0 0.0 0.0 0.00 0.00 0.00 100
20260507194620 -17 0 0.0 0.0 0.00 0.00 0.00 100
20260507194538 -17 0 0.0 0.0 0.00 0.00 0.00 100
20260507193120 -17 0 0.0 0.0 0.00 0.00 0.00 100
20260507193038 -17 0 0.0 0.0 0.00 0.00 0.00 100
20260507191620 -17 0 0.0 0.0 0.00 0.00 0.00 100
20260507191538 -17 0 0.0 0.0 0.00 0.00 0.00 100
20260507190120 20 0 0.0 0.0 0.00 0.00 0.00 51 1003.9
20260507190038 20 0 0.0 0.0 0.00 0.00 0.00 51 1003.8
20260507184620 20 0 0.0 0.0 0.00 0.00 0.00 52 1003.7
20260507184538 20 0 0.0 0.0 0.00 0.00 0.00 55 1003.7
20260507180248 21 0 0.0 0.0 0.00 0.00 0.00 47 1003.4
20260507175722 21 0 0.0 0.0 0.00 0.00 0.00 50 1003.4
20260507174159 -17 0 0.0 0.0 0.00 0.00 0.00 100
20260507172659 -17 0 0.0 0.0 0.00 0.00 0.00 100
20260507171224 21 0 0.0 0.0 0.00 0.00 0.00 53 1003.5
20260507171159 21 0 0.0 0.0 0.00 0.00 0.00 54 1003.5
20260507161508 20 0 0.0 0.0 0.00 0.00 0.00 53 1003.3
20260507160008 20 0 0.0 0.0 0.00 0.00 0.00 53 1003.3
20260507155832 20 0 0.0 0.0 0.00 0.00 0.00 53 1003.3
20260507155530 20 0 0.0 0.0 0.00 0.00 0.00 53 1003.3
20260507155310 20 0 0.0 0.0 0.00 0.00 0.00 53 1003.4